Погода в Средней Муе

Россия / Иркутская область     54°20′04″N   103°31′14″E
темп.,
°C
ветер,
м/с
пор.,
м/с
влажн.,
%
обл.,
%
осадки,
мм/ч
давл.,
гПа
погр.,
м
11 августа, чт
чт1123:00+12в008723 0.0 101010
02:00+11юв11905 0.0 101010
05:00+10зсз1195100 0.2 101011
08:00+12ююв129619 0.8 101063
11:00+14з1394100 1.1 1010166
14:00+17юз23827 3.3 1009525
17:00+17зсз35848 2.7 1009748
20:00+15сз11927 3.6 101021
12 августа, пт
пт1223:00+12сз11955 0.0 101110
02:00+10зсз00962 0.0 101110
05:00+9ююв00977 0.0 101210
08:00+13вюв009116 0.0 1011150
11:00+20юз116231 0.0 10101021
14:00+23зсз114421 0.1 10081798
17:00+23сз224343 0.0 10061968
20:00+17ссз2273100 0.0 100721
13 августа, сб
сб1323:00+14ссв118171 0.0 100811
02:00+12всв118893 0.0 100810
05:00+11с1193100 0.0 100810
08:00+14ссз1181100 0.0 100845
11:00+18зсз126426 0.0 1008630
14:00+19сз447217 1.0 1007946
17:00+21сз245424 0.6 10061414
20:00+16ссз376978 0.7 1007318
14 августа, вс
вс1423:00+11с22870 0.0 100814
02:00+8с11910 0.0 100912
05:00+7ссв11945 0.0 100911
08:00+12св11721 0.0 1009202
11:00+19сз024322 0.0 10081156
14:00+22з123885 0.0 10061616
17:00+22ююз113937 0.0 10051641
20:00+17вюв1163100 0.0 100411
15 августа, пн
пн1523:00+13в2287100 0.6 100624
02:00+13всв1186100 0.6 100410
05:00+12св118799 0.0 100410
08:00+14зсз2287100 0.4 1004127
11:00+13св1397100 1.9 1004152
14:00+14с239699 2.2 1004205
17:00+16с467699 0.1 1005796
20:00+13ссз249024 0.1 1004137